Torna al catalogo

STARLINK-36045

AttivoComunicazioniVLEO
NORAD 66811·PAYLOAD·🇺🇸 United States

Lanciato Dec 1, 2025 da Cape Canaveral Space Force Station

Loading…

Prossimi Passaggi (prossime 24 ore)

TLE

AggiornatoSource: CelesTrak SupGP

Epoca: Sep 15, 2026, 04:06 UTC

1 66811C 25278W   26258.17131944  .00039905  00000+0  14450-2 0  2588
2 66811  43.0019 124.3330 0001444 269.7667 218.2522 15.27566280    18

Traccia STARLINK-36045 in tempo reale con AllMySat

Download on the App Store